Time,TemperatureF,DewpointF,PressureIn,WindDirection,WindDirectionDegrees,WindSpeedMPH,WindSpeedGustMPH,Humidity,HourlyPrecipIn,Conditions,Clouds,dailyrainin,SoftwareType,DateUTC
2013-07-21 00:00:00,76.3,34.6,29.84,North,0,0.0,0.0,22,0.00,CLR,,0.00,WeatherDisplay:10.37,2013-07-21 04:00:00,
2013-07-21 00:01:00,76.3,34.6,29.84,North,0,0.0,0.0,22,0.00,CLR,,0.00,WeatherDisplay:10.37,2013-07-21 04:01:00,
2013-07-21 00:06:00,76.1,34.5,29.84,North,0,0.0,0.0,22,0.00,CLR,,0.00,WeatherDisplay:10.37,2013-07-21 04:06:00,
2013-07-21 00:11:00,75.9,35.4,29.84,North,0,0.0,0.0,23,0.00,CLR,,0.00,WeatherDisplay:10.37,2013-07-21 04:11:00,
2013-07-21 00:16:00,75.7,35.3,29.84,North,0,0.0,0.0,23,0.00,CLR,,0.00,WeatherDisplay:10.37,2013-07-21 04:16:00,
2013-07-21 00:21:00,75.6,35.1,29.84,North,0,0.0,0.0,23,0.00,CLR,,0.00,WeatherDisplay:10.37,2013-07-21 04:21:00,
2013-07-21 00:26:00,75.2,34.8,29.84,North,0,0.0,0.0,23,0.00,CLR,,0.00,WeatherDisplay:10.37,2013-07-21 04:26:00,
2013-07-21 00:31:00,75.2,34.8,29.84,North,0,0.0,0.0,23,0.00,CLR,,0.00,WeatherDisplay:10.37,2013-07-21 04:31:00,
2013-07-21 00:36:00,74.8,34.5,29.84,North,0,0.0,0.0,23,0.00,CLR,,0.00,WeatherDisplay:10.37,2013-07-21 04:36:00,
2013-07-21 00:41:00,74.8,34.5,29.84,North,0,0.0,0.0,23,0.00,CLR,,0.00,WeatherDisplay:10.37,2013-07-21 04:41:00,
2013-07-21 00:46:00,74.7,34.4,29.84,North,0,0.0,0.0,23,0.00,CLR,,0.00,WeatherDisplay:10.37,2013-07-21 04:46:00,
2013-07-21 00:51:00,74.5,34.2,29.84,North,0,0.0,0.0,23,0.00,CLR,,0.00,WeatherDisplay:10.37,2013-07-21 04:51:00,
2013-07-21 00:56:00,74.3,34.1,29.84,North,0,0.0,0.0,23,0.00,CLR,,0.00,WeatherDisplay:10.37,2013-07-21 04:56:00,
2013-07-21 01:01:00,74.3,34.1,29.84,North,0,0.0,0.0,23,0.00,CLR,,0.00,WeatherDisplay:10.37,2013-07-21 05:01:00,
2013-07-21 01:06:00,74.3,34.1,29.85,North,0,0.0,0.0,23,0.00,CLR,,0.00,WeatherDisplay:10.37,2013-07-21 05:06:00,
2013-07-21 01:11:00,74.3,34.1,29.85,North,0,0.0,0.0,23,0.00,CLR,,0.00,WeatherDisplay:10.37,2013-07-21 05:11:00,
2013-07-21 01:16:00,74.1,32.8,29.85,North,0,0.0,0.0,22,0.00,CLR,,0.00,WeatherDisplay:10.37,2013-07-21 05:16:00,
2013-07-21 01:21:00,74.1,31.7,29.85,North,0,0.0,0.0,21,0.00,CLR,,0.00,WeatherDisplay:10.37,2013-07-21 05:21:00,
2013-07-21 01:26:00,74.1,31.7,29.85,North,0,0.0,0.0,21,0.00,CLR,,0.00,WeatherDisplay:10.37,2013-07-21 05:26:00,
2013-07-21 01:31:00,74.1,29.2,29.85,North,0,0.0,0.0,19,0.00,CLR,,0.00,WeatherDisplay:10.37,2013-07-21 05:31:00,
2013-07-21 01:36:00,74.1,29.2,29.85,North,0,0.0,0.0,19,0.00,CLR,,0.00,WeatherDisplay:10.37,2013-07-21 05:36:00,
2013-07-21 01:41:00,73.9,29.0,29.86,North,0,0.0,0.0,19,0.00,CLR,,0.00,WeatherDisplay:10.37,2013-07-21 05:41:00,
2013-07-21 01:46:00,73.9,27.7,29.86,North,0,0.0,0.0,18,0.00,CLR,,0.00,WeatherDisplay:10.37,2013-07-21 05:46:00,
2013-07-21 01:51:00,73.9,27.7,29.86,North,0,0.0,0.0,18,0.00,CLR,,0.00,WeatherDisplay:10.37,2013-07-21 05:51:00,
2013-07-21 01:57:00,74.1,27.9,29.87,North,0,0.0,0.0,18,0.00,CLR,,0.00,WeatherDisplay:10.37,2013-07-21 05:57:00,
2013-07-21 02:02:00,74.1,26.5,29.87,North,0,0.0,0.0,17,0.00,CLR,,0.00,WeatherDisplay:10.37,2013-07-21 06:02:00,
2013-07-21 02:07:00,74.1,26.5,29.87,North,0,0.0,0.0,17,0.00,CLR,,0.00,WeatherDisplay:10.37,2013-07-21 06:07:00,
2013-07-21 02:12:00,74.1,26.5,29.87,North,0,0.0,0.0,17,0.00,CLR,,0.00,WeatherDisplay:10.37,2013-07-21 06:12:00,
2013-07-21 02:17:00,74.1,26.5,29.86,North,0,0.0,0.0,17,0.00,CLR,,0.00,WeatherDisplay:10.37,2013-07-21 06:17:00,
2013-07-21 02:22:00,73.9,26.3,29.87,North,0,0.0,0.0,17,0.00,CLR,,0.00,WeatherDisplay:10.37,2013-07-21 06:22:00,
2013-07-21 02:27:00,74.1,27.9,29.87,North,0,0.0,0.0,18,0.00,CLR,,0.00,WeatherDisplay:10.37,2013-07-21 06:27:00,
2013-07-21 02:32:00,73.9,27.7,29.87,North,0,0.0,0.0,18,0.00,CLR,,0.00,WeatherDisplay:10.37,2013-07-21 06:32:00,
2013-07-21 02:37:00,74.1,27.9,29.87,North,0,0.0,0.0,18,0.00,CLR,,0.00,WeatherDisplay:10.37,2013-07-21 06:37:00,
2013-07-21 02:42:00,74.1,27.9,29.87,North,0,0.0,0.0,18,0.00,CLR,,0.00,WeatherDisplay:10.37,2013-07-21 06:42:00,
2013-07-21 02:47:00,74.1,27.9,29.87,North,0,0.0,0.0,18,0.00,CLR,,0.00,WeatherDisplay:10.37,2013-07-21 06:47:00,
2013-07-21 02:52:00,74.1,29.2,29.87,North,0,0.0,0.0,19,0.00,CLR,,0.00,WeatherDisplay:10.37,2013-07-21 06:52:00,
2013-07-21 02:57:00,74.1,31.7,29.87,North,0,0.0,0.0,21,0.00,CLR,,0.00,WeatherDisplay:10.37,2013-07-21 06:57:00,
2013-07-21 03:02:00,74.1,33.9,29.87,North,0,0.0,0.0,23,0.00,CLR,,0.00,WeatherDisplay:10.37,2013-07-21 07:02:00,
2013-07-21 03:07:00,74.3,35.2,29.87,North,0,0.0,0.0,24,0.00,CLR,,0.00,WeatherDisplay:10.37,2013-07-21 07:07:00,
2013-07-21 03:12:00,74.3,37.2,29.87,North,0,0.0,0.0,26,0.00,CLR,,0.00,WeatherDisplay:10.37,2013-07-21 07:12:00,
2013-07-21 03:17:00,74.5,37.3,29.87,North,0,0.0,0.0,26,0.00,CLR,,0.00,WeatherDisplay:10.37,2013-07-21 07:17:00,
2013-07-21 03:22:00,74.5,38.3,29.87,North,0,0.0,0.0,27,0.00,CLR,,0.00,WeatherDisplay:10.37,2013-07-21 07:22:00,
2013-07-21 03:27:00,74.5,39.2,29.87,North,0,0.0,0.0,28,0.00,CLR,,0.00,WeatherDisplay:10.37,2013-07-21 07:27:00,
2013-07-21 03:32:00,74.5,40.1,29.88,North,0,0.0,0.0,29,0.00,CLR,,0.00,WeatherDisplay:10.37,2013-07-21 07:32:00,
2013-07-21 03:37:00,74.5,40.1,29.87,North,0,0.0,0.0,29,0.00,CLR,,0.00,WeatherDisplay:10.37,2013-07-21 07:37:00,
2013-07-21 03:42:00,74.5,41.0,29.87,North,0,0.0,0.0,30,0.00,CLR,,0.00,WeatherDisplay:10.37,2013-07-21 07:42:00,
2013-07-21 03:47:00,74.5,41.0,29.87,North,0,0.0,0.0,30,0.00,CLR,,0.00,WeatherDisplay:10.37,2013-07-21 07:47:00,
2013-07-21 03:52:00,74.5,41.0,29.88,North,0,0.0,0.0,30,0.00,CLR,,0.00,WeatherDisplay:10.37,2013-07-21 07:52:00,
2013-07-21 03:57:00,74.5,41.9,29.88,North,0,0.0,0.0,31,0.00,CLR,,0.00,WeatherDisplay:10.37,2013-07-21 07:57:00,
2013-07-21 04:02:00,74.3,41.7,29.88,North,0,0.0,0.0,31,0.00,CLR,,0.00,WeatherDisplay:10.37,2013-07-21 08:02:00,
2013-07-21 04:07:00,74.3,41.7,29.89,North,0,0.0,0.0,31,0.00,CLR,,0.00,WeatherDisplay:10.37,2013-07-21 08:07:00,
2013-07-21 04:12:00,74.3,42.5,29.89,North,0,0.0,0.0,32,0.00,CLR,,0.00,WeatherDisplay:10.37,2013-07-21 08:12:00,
2013-07-21 04:17:00,74.3,41.7,29.89,North,0,0.0,0.0,31,0.00,CLR,,0.00,WeatherDisplay:10.37,2013-07-21 08:17:00,
2013-07-21 04:22:00,74.3,41.7,29.89,North,0,0.0,0.0,31,0.00,CLR,,0.00,WeatherDisplay:10.37,2013-07-21 08:22:00,
2013-07-21 04:27:00,74.1,42.4,29.89,North,0,0.0,0.0,32,0.00,CLR,,0.00,WeatherDisplay:10.37,2013-07-21 08:27:00,
2013-07-21 04:32:00,74.1,41.5,29.89,North,0,0.0,0.0,31,0.00,CLR,,0.00,WeatherDisplay:10.37,2013-07-21 08:32:00,
2013-07-21 04:37:00,74.1,41.5,29.89,North,0,0.0,0.0,31,0.00,CLR,,0.00,WeatherDisplay:10.37,2013-07-21 08:37:00,
2013-07-21 04:42:00,74.1,41.5,29.90,North,0,0.0,0.0,31,0.00,CLR,,0.00,WeatherDisplay:10.37,2013-07-21 08:42:00,
2013-07-21 04:47:00,73.9,41.4,29.90,North,0,0.0,0.0,31,0.00,CLR,,0.00,WeatherDisplay:10.37,2013-07-21 08:47:00,
2013-07-21 04:52:00,73.8,41.2,29.90,North,0,0.0,0.0,31,0.00,CLR,,0.00,WeatherDisplay:10.37,2013-07-21 08:52:00,
2013-07-21 04:57:00,73.8,40.4,29.90,North,0,0.0,0.0,30,0.00,CLR,,0.00,WeatherDisplay:10.37,2013-07-21 08:57:00,
2013-07-21 05:02:00,73.8,40.4,29.90,North,0,0.0,0.0,30,0.00,CLR,,0.00,WeatherDisplay:10.37,2013-07-21 09:02:00,
2013-07-21 05:07:00,73.8,40.4,29.90,North,0,0.0,0.0,30,0.00,CLR,,0.00,WeatherDisplay:10.37,2013-07-21 09:07:00,
2013-07-21 05:12:00,73.6,40.2,29.90,North,0,0.0,0.0,30,0.00,CLR,,0.00,WeatherDisplay:10.37,2013-07-21 09:12:00,
2013-07-21 05:17:00,73.6,39.4,29.90,North,0,0.0,0.0,29,0.00,CLR,,0.00,WeatherDisplay:10.37,2013-07-21 09:17:00,
2013-07-21 05:22:00,73.4,39.2,29.90,North,0,0.0,0.0,29,0.00,CLR,,0.00,WeatherDisplay:10.37,2013-07-21 09:22:00,
2013-07-21 05:27:00,73.4,39.2,29.90,North,0,0.0,0.0,29,0.00,CLR,,0.00,WeatherDisplay:10.37,2013-07-21 09:27:00,
2013-07-21 05:32:00,73.4,39.2,29.91,North,0,0.0,0.0,29,0.00,CLR,,0.00,WeatherDisplay:10.37,2013-07-21 09:32:00,
2013-07-21 05:37:00,73.4,39.2,29.90,North,0,0.0,0.0,29,0.00,CLR,,0.00,WeatherDisplay:10.37,2013-07-21 09:37:00,
2013-07-21 05:42:00,73.4,39.2,29.91,North,0,0.0,0.0,29,0.00,CLR,,0.00,WeatherDisplay:10.37,2013-07-21 09:42:00,
2013-07-21 05:47:00,73.4,38.3,29.92,North,0,0.0,0.0,28,0.00,CLR,,0.00,WeatherDisplay:10.37,2013-07-21 09:47:00,
2013-07-21 05:52:00,73.2,38.1,29.92,North,0,0.0,0.0,28,0.00,CLR,,0.00,WeatherDisplay:10.37,2013-07-21 09:52:00,
2013-07-21 05:57:00,73.2,38.1,29.92,North,0,0.0,0.0,28,0.00,CLR,,0.00,WeatherDisplay:10.37,2013-07-21 09:57:00,
2013-07-21 06:02:00,73.2,38.1,29.92,North,0,0.0,0.0,28,0.00,CLR,,0.00,WeatherDisplay:10.37,2013-07-21 10:02:00,
2013-07-21 06:07:00,73.2,37.2,29.92,North,0,0.0,0.0,27,0.00,CLR,,0.00,WeatherDisplay:10.37,2013-07-21 10:07:00,
2013-07-21 06:12:00,73.2,36.3,29.92,North,0,0.0,0.0,26,0.00,CLR,,0.00,WeatherDisplay:10.37,2013-07-21 10:12:00,
2013-07-21 06:17:00,73.0,35.1,29.92,North,0,0.0,0.0,25,0.00,CLR,,0.00,WeatherDisplay:10.37,2013-07-21 10:17:00,
2013-07-21 06:22:00,73.0,35.1,29.92,North,0,0.0,0.0,25,0.00,CLR,,0.00,WeatherDisplay:10.37,2013-07-21 10:22:00,
2013-07-21 06:27:00,73.0,34.1,29.93,North,0,0.0,0.0,24,0.00,CLR,,0.00,WeatherDisplay:10.37,2013-07-21 10:27:00,
2013-07-21 06:32:00,72.9,32.9,29.92,North,0,0.0,0.0,23,0.00,CLR,,0.00,WeatherDisplay:10.37,2013-07-21 10:32:00,
2013-07-21 06:37:00,72.9,32.9,29.93,North,0,0.0,0.0,23,0.00,CLR,,0.00,WeatherDisplay:10.37,2013-07-21 10:37:00,
2013-07-21 06:42:00,72.9,32.9,29.93,North,0,0.0,0.0,23,0.00,CLR,,0.00,WeatherDisplay:10.37,2013-07-21 10:42:00,
2013-07-21 06:47:00,72.9,31.8,29.93,North,0,0.0,0.0,22,0.00,CLR,,0.00,WeatherDisplay:10.37,2013-07-21 10:47:00,
2013-07-21 06:52:00,72.9,31.8,29.94,North,0,0.0,0.0,22,0.00,CLR,,0.00,WeatherDisplay:10.37,2013-07-21 10:52:00,
2013-07-21 06:57:00,73.0,30.8,29.94,North,0,0.0,0.0,21,0.00,CLR,,0.00,WeatherDisplay:10.37,2013-07-21 10:57:00,
2013-07-21 07:02:00,73.0,30.8,29.93,North,0,0.0,0.0,21,0.00,CLR,,0.00,WeatherDisplay:10.37,2013-07-21 11:02:00,
2013-07-21 07:07:00,73.0,30.8,29.94,North,0,0.0,0.0,21,0.00,CLR,,0.00,WeatherDisplay:10.37,2013-07-21 11:07:00,
2013-07-21 07:12:00,73.0,30.8,29.94,North,0,0.0,0.0,21,0.00,CLR,,0.00,WeatherDisplay:10.37,2013-07-21 11:12:00,
2013-07-21 07:17:00,73.0,28.3,29.95,North,0,0.0,0.0,19,0.00,CLR,,0.00,WeatherDisplay:10.37,2013-07-21 11:17:00,
2013-07-21 07:22:00,73.0,28.3,29.95,North,0,0.0,0.0,19,0.00,CLR,,0.00,WeatherDisplay:10.37,2013-07-21 11:22:00,
2013-07-21 07:28:00,73.0,28.3,29.95,North,0,0.0,0.0,19,0.00,CLR,,0.00,WeatherDisplay:10.37,2013-07-21 11:28:00,
2013-07-21 07:33:00,73.0,28.3,29.95,North,0,0.0,0.0,19,0.00,CLR,,0.00,WeatherDisplay:10.37,2013-07-21 11:33:00,
2013-07-21 07:38:00,73.0,27.0,29.95,North,0,0.0,0.0,18,0.00,CLR,,0.00,WeatherDisplay:10.37,2013-07-21 11:38:00,
2013-07-21 07:43:00,73.0,27.0,29.95,North,0,0.0,0.0,18,0.00,CLR,,0.00,WeatherDisplay:10.37,2013-07-21 11:43:00,
2013-07-21 07:48:00,73.2,27.1,29.95,North,0,0.0,0.0,18,0.00,CLR,,0.00,WeatherDisplay:10.37,2013-07-21 11:48:00,
2013-07-21 07:53:00,73.4,27.3,29.95,North,0,0.0,0.0,18,0.00,CLR,,0.00,WeatherDisplay:10.37,2013-07-21 11:53:00,
2013-07-21 07:58:00,73.4,25.9,29.95,North,0,0.0,0.0,17,0.00,CLR,,0.00,WeatherDisplay:10.37,2013-07-21 11:58:00,
2013-07-21 08:03:00,73.4,25.9,29.95,North,0,0.0,0.0,17,0.00,CLR,,0.00,WeatherDisplay:10.37,2013-07-21 12:03:00,
2013-07-21 08:08:00,73.4,25.9,29.95,North,0,0.0,0.0,17,0.00,CLR,,0.00,WeatherDisplay:10.37,2013-07-21 12:08:00,
2013-07-21 08:13:00,73.4,25.9,29.97,North,0,0.0,0.0,17,0.00,CLR,,0.00,WeatherDisplay:10.37,2013-07-21 12:13:00,
2013-07-21 08:18:00,73.4,27.3,29.95,North,0,0.0,0.0,18,0.00,CLR,,0.00,WeatherDisplay:10.37,2013-07-21 12:18:00,
2013-07-21 08:23:00,73.4,27.3,29.95,North,0,0.0,0.0,18,0.00,CLR,,0.00,WeatherDisplay:10.37,2013-07-21 12:23:00,
2013-07-21 08:28:00,73.6,27.4,29.97,North,0,0.0,0.0,18,0.00,CLR,,0.00,WeatherDisplay:10.37,2013-07-21 12:28:00,
2013-07-21 08:33:00,73.6,27.4,29.97,North,0,0.0,0.0,18,0.00,CLR,,0.00,WeatherDisplay:10.37,2013-07-21 12:33:00,
2013-07-21 08:38:00,73.6,27.4,29.97,North,0,0.0,0.0,18,0.00,CLR,,0.00,WeatherDisplay:10.37,2013-07-21 12:38:00,
2013-07-21 08:43:00,73.6,27.4,29.97,North,0,0.0,0.0,18,0.00,CLR,,0.00,WeatherDisplay:10.37,2013-07-21 12:43:00,
2013-07-21 08:48:00,73.4,27.3,29.97,North,0,0.0,0.0,18,0.00,CLR,,0.00,WeatherDisplay:10.37,2013-07-21 12:48:00,
2013-07-21 08:53:00,73.6,27.4,29.97,North,0,0.0,0.0,18,0.00,CLR,,0.00,WeatherDisplay:10.37,2013-07-21 12:53:00,
2013-07-21 08:58:00,73.8,27.6,29.97,North,0,0.0,0.0,18,0.00,CLR,,0.00,WeatherDisplay:10.37,2013-07-21 12:58:00,
2013-07-21 09:03:00,73.8,28.9,29.97,North,0,0.0,0.0,19,0.00,CLR,,0.00,WeatherDisplay:10.37,2013-07-21 13:03:00,
2013-07-21 09:08:00,73.8,28.9,29.97,North,0,0.0,0.0,19,0.00,CLR,,0.00,WeatherDisplay:10.37,2013-07-21 13:08:00,
2013-07-21 09:13:00,73.8,28.9,29.97,North,0,0.0,0.0,19,0.00,CLR,,0.00,WeatherDisplay:10.37,2013-07-21 13:13:00,
2013-07-21 09:18:00,74.1,29.2,29.97,North,0,0.0,0.0,19,0.00,CLR,,0.00,WeatherDisplay:10.37,2013-07-21 13:18:00,
2013-07-21 09:23:00,74.3,29.3,29.97,North,0,0.0,0.0,19,0.00,CLR,,0.00,WeatherDisplay:10.37,2013-07-21 13:23:00,
2013-07-21 09:28:00,74.8,29.8,29.97,North,0,0.0,0.0,19,0.00,CLR,,0.00,WeatherDisplay:10.37,2013-07-21 13:28:00,
2013-07-21 09:33:00,76.1,30.8,29.97,North,0,0.0,0.0,19,0.00,CLR,,0.00,WeatherDisplay:10.37,2013-07-21 13:33:00,
2013-07-21 09:38:00,76.3,33.5,29.97,North,0,0.0,0.0,21,0.00,CLR,,0.00,WeatherDisplay:10.37,2013-07-21 13:38:00,
2013-07-21 09:43:00,76.3,36.8,29.98,North,0,0.0,0.0,24,0.00,CLR,,0.00,WeatherDisplay:10.37,2013-07-21 13:43:00,
2013-07-21 09:48:00,75.9,37.6,29.98,North,0,0.0,0.0,25,0.00,CLR,,0.00,WeatherDisplay:10.37,2013-07-21 13:48:00,
2013-07-21 09:53:00,75.6,38.2,29.98,North,0,0.0,0.0,26,0.00,CLR,,0.00,WeatherDisplay:10.37,2013-07-21 13:53:00,
2013-07-21 09:58:00,75.0,38.8,29.98,North,0,0.0,0.0,27,0.00,CLR,,0.00,WeatherDisplay:10.37,2013-07-21 13:58:00,
2013-07-21 10:03:00,74.7,39.4,29.98,North,0,0.0,0.0,28,0.00,CLR,,0.00,WeatherDisplay:10.37,2013-07-21 14:03:00,
2013-07-21 10:08:00,74.5,40.1,29.98,North,0,0.0,0.0,29,0.00,CLR,,0.00,WeatherDisplay:10.37,2013-07-21 14:08:00,
2013-07-21 10:13:00,74.3,40.0,29.98,North,0,0.0,0.0,29,0.00,CLR,,0.00,WeatherDisplay:10.37,2013-07-21 14:13:00,
2013-07-21 10:18:00,74.3,40.8,29.98,North,0,0.0,0.0,30,0.00,CLR,,0.00,WeatherDisplay:10.37,2013-07-21 14:18:00,
2013-07-21 10:23:00,74.1,41.5,29.99,North,0,0.0,0.0,31,0.00,CLR,,0.00,WeatherDisplay:10.37,2013-07-21 14:23:00,
2013-07-21 10:28:00,73.9,42.2,30.00,North,0,0.0,0.0,32,0.00,CLR,,0.00,WeatherDisplay:10.37,2013-07-21 14:28:00,
2013-07-21 10:33:00,73.8,42.0,29.99,North,0,0.0,0.0,32,0.00,CLR,,0.00,WeatherDisplay:10.37,2013-07-21 14:33:00,
2013-07-21 10:38:00,73.8,42.0,29.99,North,0,0.0,0.0,32,0.00,CLR,,0.00,WeatherDisplay:10.37,2013-07-21 14:38:00,
2013-07-21 10:43:00,73.8,42.0,29.99,North,0,0.0,0.0,32,0.00,CLR,,0.00,WeatherDisplay:10.37,2013-07-21 14:43:00,
2013-07-21 10:48:00,73.9,42.2,29.99,North,0,0.0,0.0,32,0.00,CLR,,0.00,WeatherDisplay:10.37,2013-07-21 14:48:00,
2013-07-21 10:53:00,74.3,43.3,29.99,North,0,0.0,0.0,33,0.00,CLR,,0.00,WeatherDisplay:10.37,2013-07-21 14:53:00,
2013-07-21 10:58:00,74.5,43.5,29.99,North,0,0.0,0.0,33,0.00,CLR,,0.00,WeatherDisplay:10.37,2013-07-21 14:58:00,
2013-07-21 11:03:00,75.0,44.0,29.98,North,0,0.0,0.0,33,0.00,CLR,,0.00,WeatherDisplay:10.37,2013-07-21 15:03:00,
2013-07-21 11:08:00,75.6,44.4,29.99,North,0,0.0,0.0,33,0.00,CLR,,0.00,WeatherDisplay:10.37,2013-07-21 15:08:00,
2013-07-21 11:13:00,75.7,45.4,30.00,North,0,0.0,0.0,34,0.00,CLR,,0.00,WeatherDisplay:10.37,2013-07-21 15:13:00,
2013-07-21 11:18:00,75.2,45.7,29.99,North,0,0.0,0.0,35,0.00,CLR,,0.00,WeatherDisplay:10.37,2013-07-21 15:18:00,
2013-07-21 11:23:00,75.0,44.7,30.00,North,0,0.0,0.0,34,0.00,CLR,,0.00,WeatherDisplay:10.37,2013-07-21 15:23:00,
2013-07-21 11:28:00,75.0,44.7,30.00,North,0,0.0,0.0,34,0.00,CLR,,0.00,WeatherDisplay:10.37,2013-07-21 15:28:00,
2013-07-21 11:33:00,75.2,44.1,30.00,North,0,0.0,0.0,33,0.00,CLR,,0.00,WeatherDisplay:10.37,2013-07-21 15:33:00,
2013-07-21 11:38:00,75.2,44.9,30.00,North,0,0.0,0.0,34,0.00,CLR,,0.00,WeatherDisplay:10.37,2013-07-21 15:38:00,
2013-07-21 11:43:00,75.4,45.1,30.00,North,0,0.0,0.0,34,0.00,CLR,,0.00,WeatherDisplay:10.37,2013-07-21 15:43:00,
2013-07-21 11:48:00,75.9,45.5,30.00,North,0,0.0,0.0,34,0.00,CLR,,0.00,WeatherDisplay:10.37,2013-07-21 15:48:00,
2013-07-21 11:53:00,77.0,45.7,30.00,North,0,0.0,0.0,33,0.00,CLR,,0.00,WeatherDisplay:10.37,2013-07-21 15:53:00,
2013-07-21 11:58:00,78.1,47.4,30.00,North,0,0.0,0.0,34,0.00,CLR,,0.00,WeatherDisplay:10.37,2013-07-21 15:58:00,
2013-07-21 12:03:00,78.4,48.5,30.00,North,0,0.0,0.0,35,0.00,CLR,,0.00,WeatherDisplay:10.37,2013-07-21 16:03:00,
2013-07-21 12:08:00,77.9,48.8,30.00,North,0,0.0,0.0,36,0.00,CLR,,0.00,WeatherDisplay:10.37,2013-07-21 16:08:00,
2013-07-21 12:13:00,77.4,49.0,30.00,North,0,0.0,0.0,37,0.00,CLR,,0.00,WeatherDisplay:10.37,2013-07-21 16:13:00,
2013-07-21 12:18:00,76.8,48.6,30.00,North,0,0.0,0.0,37,0.00,CLR,,0.00,WeatherDisplay:10.37,2013-07-21 16:18:00,
2013-07-21 12:23:00,76.6,48.4,30.00,North,0,0.0,0.0,37,0.00,CLR,,0.00,WeatherDisplay:10.37,2013-07-21 16:23:00,
2013-07-21 12:28:00,76.6,46.2,30.00,North,0,0.0,0.0,34,0.00,CLR,,0.00,WeatherDisplay:10.37,2013-07-21 16:28:00,
2013-07-21 12:34:00,77.4,47.6,30.00,North,0,0.0,0.0,35,0.00,CLR,,0.00,WeatherDisplay:10.37,2013-07-21 16:34:00,
2013-07-21 12:39:00,77.7,47.9,30.00,North,0,0.0,0.0,35,0.00,CLR,,0.00,WeatherDisplay:10.37,2013-07-21 16:39:00,
2013-07-21 12:44:00,78.6,47.9,30.00,North,0,0.0,0.0,34,0.00,CLR,,0.00,WeatherDisplay:10.37,2013-07-21 16:44:00,
2013-07-21 12:49:00,79.5,49.5,30.00,North,0,0.0,0.0,35,0.00,CLR,,0.00,WeatherDisplay:10.37,2013-07-21 16:49:00,
2013-07-21 12:54:00,80.2,51.6,30.00,North,0,0.0,0.0,37,0.00,CLR,,0.00,WeatherDisplay:10.37,2013-07-21 16:54:00,
2013-07-21 12:59:00,81.0,50.7,29.99,North,0,0.0,0.0,35,0.00,CLR,,0.00,WeatherDisplay:10.37,2013-07-21 16:59:00,
2013-07-21 13:04:00,82.0,53.2,29.99,North,0,0.0,0.0,37,0.00,CLR,,0.00,WeatherDisplay:10.37,2013-07-21 17:04:00,
2013-07-21 13:09:00,82.8,54.6,29.99,North,0,0.0,0.0,38,0.00,CLR,,0.00,WeatherDisplay:10.37,2013-07-21 17:09:00,
2013-07-21 13:14:00,83.1,55.6,30.00,North,0,0.0,0.0,39,0.00,CLR,,0.00,WeatherDisplay:10.37,2013-07-21 17:14:00,
2013-07-21 13:19:00,82.8,56.0,30.00,North,0,0.0,0.0,40,0.00,CLR,,0.00,WeatherDisplay:10.37,2013-07-21 17:19:00,
2013-07-21 13:24:00,82.6,55.8,30.00,North,0,0.0,0.0,40,0.00,CLR,,0.00,WeatherDisplay:10.37,2013-07-21 17:24:00,
2013-07-21 13:29:00,82.6,55.8,29.99,North,0,0.0,0.0,40,0.00,CLR,,0.00,WeatherDisplay:10.37,2013-07-21 17:29:00,
2013-07-21 13:34:00,83.1,55.6,30.00,North,0,0.0,0.0,39,0.00,CLR,,0.00,WeatherDisplay:10.37,2013-07-21 17:34:00,
2013-07-21 13:39:00,83.5,56.6,30.00,North,0,0.0,0.0,40,0.00,CLR,,0.00,WeatherDisplay:10.37,2013-07-21 17:39:00,
2013-07-21 13:44:00,84.2,56.6,30.00,North,0,0.0,0.0,39,0.00,CLR,,0.00,WeatherDisplay:10.37,2013-07-21 17:44:00,
2013-07-21 13:49:00,84.2,59.9,30.00,North,0,0.0,0.0,44,0.00,CLR,,0.00,WeatherDisplay:10.37,2013-07-21 17:49:00,
2013-07-21 13:54:00,84.2,59.9,30.00,North,0,0.0,0.0,44,0.00,CLR,,0.00,WeatherDisplay:10.37,2013-07-21 17:54:00,
2013-07-21 13:59:00,83.8,59.0,30.00,North,0,0.0,0.0,43,0.00,CLR,,0.00,WeatherDisplay:10.37,2013-07-21 17:59:00,
2013-07-21 14:04:00,83.8,58.3,30.00,North,0,0.0,0.0,42,0.00,CLR,,0.00,WeatherDisplay:10.37,2013-07-21 18:04:00,
2013-07-21 14:09:00,84.9,59.9,30.00,North,0,0.0,0.0,43,0.00,CLR,,0.00,WeatherDisplay:10.37,2013-07-21 18:09:00,
2013-07-21 14:14:00,85.3,61.5,30.00,North,0,0.0,0.0,45,0.00,CLR,,0.00,WeatherDisplay:10.37,2013-07-21 18:14:00,
2013-07-21 14:19:00,85.8,63.9,30.00,North,0,0.0,0.0,48,0.00,CLR,,0.00,WeatherDisplay:10.37,2013-07-21 18:19:00,
2013-07-21 14:24:00,85.6,63.1,30.00,North,0,0.0,0.0,47,0.00,CLR,,0.00,WeatherDisplay:10.37,2013-07-21 18:24:00,
2013-07-21 14:29:00,85.8,64.5,30.00,North,0,0.0,0.0,49,0.00,CLR,,0.00,WeatherDisplay:10.37,2013-07-21 18:29:00,
2013-07-21 14:34:00,85.6,63.7,30.00,North,0,0.0,0.0,48,0.00,CLR,,0.00,WeatherDisplay:10.37,2013-07-21 18:34:00,
2013-07-21 14:39:00,86.2,63.0,30.00,North,0,0.0,0.0,46,0.00,CLR,,0.00,WeatherDisplay:10.37,2013-07-21 18:39:00,
2013-07-21 14:44:00,86.5,62.7,30.00,North,0,0.0,0.0,45,0.00,CLR,,0.00,WeatherDisplay:10.37,2013-07-21 18:44:00,
2013-07-21 14:49:00,86.2,64.2,30.00,North,0,0.0,0.0,48,0.00,CLR,,0.00,WeatherDisplay:10.37,2013-07-21 18:49:00,
2013-07-21 14:54:00,85.5,64.1,30.00,North,0,0.0,0.0,49,0.00,CLR,,0.00,WeatherDisplay:10.37,2013-07-21 18:54:00,
2013-07-21 14:59:00,84.7,62.3,30.00,North,0,0.0,0.0,47,0.00,CLR,,0.00,WeatherDisplay:10.37,2013-07-21 18:59:00,
2013-07-21 15:04:00,84.6,61.5,30.00,North,0,0.0,0.0,46,0.00,CLR,,0.00,WeatherDisplay:10.37,2013-07-21 19:04:00,
2013-07-21 15:09:00,85.3,62.8,30.00,North,0,0.0,0.0,47,0.00,CLR,,0.00,WeatherDisplay:10.37,2013-07-21 19:09:00,
2013-07-21 15:14:00,85.6,63.1,30.00,North,0,0.0,0.0,47,0.00,CLR,,0.00,WeatherDisplay:10.37,2013-07-21 19:14:00,
2013-07-21 15:19:00,85.8,63.3,30.00,North,0,0.0,0.0,47,0.00,CLR,,0.00,WeatherDisplay:10.37,2013-07-21 19:19:00,
2013-07-21 15:24:00,86.0,63.4,30.00,North,0,0.0,0.0,47,0.00,CLR,,0.00,WeatherDisplay:10.37,2013-07-21 19:24:00,
2013-07-21 15:29:00,86.0,63.4,30.00,North,0,0.0,0.0,47,0.00,CLR,,0.00,WeatherDisplay:10.37,2013-07-21 19:29:00,
2013-07-21 15:34:00,86.0,64.0,30.00,North,0,0.0,0.0,48,0.00,CLR,,0.00,WeatherDisplay:10.37,2013-07-21 19:34:00,
2013-07-21 15:39:00,86.0,64.0,30.00,North,0,0.0,0.0,48,0.00,CLR,,0.00,WeatherDisplay:10.37,2013-07-21 19:39:00,
2013-07-21 15:44:00,85.5,64.7,30.00,North,0,0.0,0.0,50,0.00,CLR,,0.00,WeatherDisplay:10.37,2013-07-21 19:44:00,
2013-07-21 15:49:00,84.9,62.4,30.00,North,0,0.0,0.0,47,0.00,CLR,,0.00,WeatherDisplay:10.37,2013-07-21 19:49:00,
2013-07-21 15:54:00,84.2,62.4,30.00,North,0,0.0,0.0,48,0.00,CLR,,0.00,WeatherDisplay:10.37,2013-07-21 19:54:00,
2013-07-21 15:59:00,83.3,61.0,30.00,North,0,0.0,0.0,47,0.00,CLR,,0.00,WeatherDisplay:10.37,2013-07-21 19:59:00,
2013-07-21 16:04:00,82.6,60.3,30.00,North,0,0.0,0.0,47,0.00,CLR,,0.00,WeatherDisplay:10.37,2013-07-21 20:04:00,
2013-07-21 16:09:00,82.0,59.2,30.00,North,0,0.0,0.0,46,0.00,CLR,,0.00,WeatherDisplay:10.37,2013-07-21 20:09:00,
2013-07-21 16:14:00,81.5,58.7,30.00,North,0,0.0,0.0,46,0.00,CLR,,0.00,WeatherDisplay:10.37,2013-07-21 20:14:00,
2013-07-21 16:19:00,81.3,60.9,30.00,North,0,0.0,0.0,50,0.00,CLR,,0.00,WeatherDisplay:10.37,2013-07-21 20:19:00,
2013-07-21 16:34:00,81.3,57.3,30.00,North,0,0.0,0.0,44,0.00,CLR,,0.00,WeatherDisplay:10.37,2013-07-21 20:34:00,
2013-07-21 16:39:00,81.7,58.3,30.00,North,0,0.0,0.0,45,0.00,CLR,,0.00,WeatherDisplay:10.37,2013-07-21 20:39:00,
2013-07-21 16:44:00,82.2,58.1,30.00,North,0,0.0,0.0,44,0.00,CLR,,0.00,WeatherDisplay:10.37,2013-07-21 20:44:00,
2013-07-21 16:49:00,82.2,58.8,30.00,North,0,0.0,0.0,45,0.00,CLR,,0.00,WeatherDisplay:10.37,2013-07-21 20:49:00,
2013-07-21 16:54:00,82.2,58.8,30.00,North,0,0.0,0.0,45,0.00,CLR,,0.00,WeatherDisplay:10.37,2013-07-21 20:54:00,
2013-07-21 16:59:00,82.2,58.8,29.99,North,0,0.0,0.0,45,0.00,CLR,,0.00,WeatherDisplay:10.37,2013-07-21 20:59:00,
2013-07-21 17:04:00,82.4,58.3,30.00,North,0,0.0,0.0,44,0.00,CLR,,0.00,WeatherDisplay:10.37,2013-07-21 21:04:00,
2013-07-21 17:09:00,82.4,58.3,30.00,North,0,0.0,0.0,44,0.00,CLR,,0.00,WeatherDisplay:10.37,2013-07-21 21:09:00,
2013-07-21 17:14:00,81.9,58.4,30.00,North,0,0.0,0.0,45,0.00,CLR,,0.00,WeatherDisplay:10.37,2013-07-21 21:14:00,
2013-07-21 17:19:00,81.7,58.3,30.00,North,0,0.0,0.0,45,0.00,CLR,,0.00,WeatherDisplay:10.37,2013-07-21 21:19:00,
2013-07-21 17:24:00,81.3,58.6,30.00,North,0,0.0,0.0,46,0.00,CLR,,0.00,WeatherDisplay:10.37,2013-07-21 21:24:00,
2013-07-21 17:29:00,80.8,58.1,30.00,North,0,0.0,0.0,46,0.00,CLR,,0.00,WeatherDisplay:10.37,2013-07-21 21:29:00,
2013-07-21 17:34:00,79.7,56.5,30.00,North,0,0.0,0.0,45,0.00,CLR,,0.00,WeatherDisplay:10.37,2013-07-21 21:34:00,
2013-07-21 17:39:00,79.7,55.9,30.00,North,0,0.0,0.0,44,0.00,CLR,,0.00,WeatherDisplay:10.37,2013-07-21 21:39:00,
2013-07-21 17:44:00,79.5,55.1,30.00,North,0,0.0,0.0,43,0.00,CLR,,0.00,WeatherDisplay:10.37,2013-07-21 21:44:00,
2013-07-21 17:49:00,79.3,54.3,30.00,North,0,0.0,0.0,42,0.00,CLR,,0.00,WeatherDisplay:10.37,2013-07-21 21:49:00,
2013-07-21 17:54:00,79.2,54.1,30.00,North,0,0.0,0.0,42,0.00,CLR,,0.00,WeatherDisplay:10.37,2013-07-21 21:54:00,
2013-07-21 17:59:00,78.8,53.8,30.00,North,0,0.0,0.0,42,0.00,CLR,,0.00,WeatherDisplay:10.37,2013-07-21 21:59:00,
2013-07-21 18:04:00,78.3,52.6,30.00,North,0,0.0,0.0,41,0.00,CLR,,0.00,WeatherDisplay:10.37,2013-07-21 22:04:00,
2013-07-21 18:09:00,77.9,51.6,30.00,North,0,0.0,0.0,40,0.00,CLR,,0.00,WeatherDisplay:10.37,2013-07-21 22:09:00,
2013-07-21 18:14:00,77.7,51.5,30.00,North,0,0.0,0.0,40,0.00,CLR,,0.00,WeatherDisplay:10.37,2013-07-21 22:14:00,
2013-07-21 18:19:00,77.4,51.1,29.99,North,0,0.0,0.0,40,0.00,CLR,,0.00,WeatherDisplay:10.37,2013-07-21 22:19:00,
2013-07-21 18:24:00,77.0,50.1,29.99,North,0,0.0,0.0,39,0.00,CLR,,0.00,WeatherDisplay:10.37,2013-07-21 22:24:00,
2013-07-21 18:29:00,76.6,49.8,29.99,North,0,0.0,0.0,39,0.00,CLR,,0.00,WeatherDisplay:10.37,2013-07-21 22:29:00,
2013-07-21 18:34:00,76.1,47.9,29.99,North,0,0.0,0.0,37,0.00,CLR,,0.00,WeatherDisplay:10.37,2013-07-21 22:34:00,
2013-07-21 18:39:00,75.6,48.2,29.99,North,0,0.0,0.0,38,0.00,CLR,,0.00,WeatherDisplay:10.37,2013-07-21 22:39:00,
2013-07-21 18:44:00,75.6,47.5,29.99,North,0,0.0,0.0,37,0.00,CLR,,0.00,WeatherDisplay:10.37,2013-07-21 22:44:00,
2013-07-21 18:49:00,75.2,45.7,30.00,North,0,0.0,0.0,35,0.00,CLR,,0.00,WeatherDisplay:10.37,2013-07-21 22:49:00,
2013-07-21 18:54:00,75.0,45.5,29.99,North,0,0.0,0.0,35,0.00,CLR,,0.00,WeatherDisplay:10.37,2013-07-21 22:54:00,
2013-07-21 18:59:00,74.7,45.2,30.00,North,0,0.0,0.0,35,0.00,CLR,,0.00,WeatherDisplay:10.37,2013-07-21 22:59:00,
2013-07-21 19:04:00,74.5,45.0,30.00,North,0,0.0,0.0,35,0.00,CLR,,0.00,WeatherDisplay:10.37,2013-07-21 23:04:00,
2013-07-21 19:09:00,74.1,44.7,30.00,North,0,0.0,0.0,35,0.00,CLR,,0.00,WeatherDisplay:10.37,2013-07-21 23:09:00,
2013-07-21 19:14:00,74.1,43.9,30.00,North,0,0.0,0.0,34,0.00,CLR,,0.00,WeatherDisplay:10.37,2013-07-21 23:14:00,
2013-07-21 19:19:00,73.8,43.6,30.00,North,0,0.0,0.0,34,0.00,CLR,,0.00,WeatherDisplay:10.37,2013-07-21 23:19:00,
2013-07-21 19:24:00,73.6,43.5,30.00,North,0,0.0,0.0,34,0.00,CLR,,0.00,WeatherDisplay:10.37,2013-07-21 23:24:00,
2013-07-21 19:29:00,73.4,42.5,30.00,North,0,0.0,0.0,33,0.00,CLR,,0.00,WeatherDisplay:10.37,2013-07-21 23:29:00,
2013-07-21 19:34:00,72.9,42.1,30.00,North,0,0.0,0.0,33,0.00,CLR,,0.00,WeatherDisplay:10.37,2013-07-21 23:34:00,
2013-07-21 19:39:00,72.5,41.7,30.00,North,0,0.0,0.0,33,0.00,CLR,,0.00,WeatherDisplay:10.37,2013-07-21 23:39:00,
2013-07-21 19:44:00,72.3,41.6,30.00,North,0,0.0,0.0,33,0.00,CLR,,0.00,WeatherDisplay:10.37,2013-07-21 23:44:00,
2013-07-21 19:49:00,72.1,41.4,30.00,North,0,0.0,0.0,33,0.00,CLR,,0.00,WeatherDisplay:10.37,2013-07-21 23:49:00,
2013-07-21 19:54:00,72.0,41.3,30.00,North,0,0.0,0.0,33,0.00,CLR,,0.00,WeatherDisplay:10.37,2013-07-21 23:54:00,
2013-07-21 19:59:00,71.6,40.2,30.00,North,0,0.0,0.0,32,0.00,CLR,,0.00,WeatherDisplay:10.37,2013-07-21 23:59:00,
2013-07-21 20:04:00,71.6,40.2,30.00,North,0,0.0,0.0,32,0.00,CLR,,0.00,WeatherDisplay:10.37,2013-07-22 00:04:00,
2013-07-21 20:09:00,71.2,39.0,30.00,North,0,0.0,0.0,31,0.00,CLR,,0.00,WeatherDisplay:10.37,2013-07-22 00:09:00,
2013-07-21 20:14:00,71.1,38.9,30.02,North,0,0.0,0.0,31,0.00,CLR,,0.00,WeatherDisplay:10.37,2013-07-22 00:14:00,
2013-07-21 20:19:00,70.9,39.5,30.02,North,0,0.0,0.0,32,0.00,CLR,,0.00,WeatherDisplay:10.37,2013-07-22 00:19:00,
2013-07-21 20:24:00,70.5,39.2,30.02,North,0,0.0,0.0,32,0.00,CLR,,0.00,WeatherDisplay:10.37,2013-07-22 00:24:00,
2013-07-21 20:29:00,70.3,39.1,30.02,North,0,0.0,0.0,32,0.00,CLR,,0.00,WeatherDisplay:10.37,2013-07-22 00:29:00,
2013-07-21 20:34:00,70.2,38.9,30.02,North,0,0.0,0.0,32,0.00,CLR,,0.00,WeatherDisplay:10.37,2013-07-22 00:34:00,
2013-07-21 20:39:00,70.2,38.9,30.03,North,0,0.0,0.0,32,0.00,CLR,,0.00,WeatherDisplay:10.37,2013-07-22 00:39:00,
2013-07-21 20:44:00,69.8,38.6,30.03,North,0,0.0,0.0,32,0.00,CLR,,0.00,WeatherDisplay:10.37,2013-07-22 00:44:00,
2013-07-21 20:50:00,69.6,38.4,30.03,North,0,0.0,0.0,32,0.00,CLR,,0.00,WeatherDisplay:10.37,2013-07-22 00:50:00,
2013-07-21 20:55:00,69.4,37.5,30.03,North,0,0.0,0.0,31,0.00,CLR,,0.00,WeatherDisplay:10.37,2013-07-22 00:55:00,
2013-07-21 21:00:00,69.1,37.2,30.03,North,0,0.0,0.0,31,0.00,CLR,,0.00,WeatherDisplay:10.37,2013-07-22 01:00:00,
2013-07-21 21:05:00,69.1,37.2,30.03,North,0,0.0,0.0,31,0.00,CLR,,0.00,WeatherDisplay:10.37,2013-07-22 01:05:00,
2013-07-21 21:10:00,68.7,36.8,30.03,North,0,0.0,0.0,31,0.00,CLR,,0.00,WeatherDisplay:10.37,2013-07-22 01:10:00,
2013-07-21 21:15:00,68.7,36.8,30.03,North,0,0.0,0.0,31,0.00,CLR,,0.00,WeatherDisplay:10.37,2013-07-22 01:15:00,
2013-07-21 21:20:00,68.5,36.7,30.03,North,0,0.0,0.0,31,0.00,CLR,,0.00,WeatherDisplay:10.37,2013-07-22 01:20:00,
2013-07-21 21:25:00,68.4,36.5,30.03,North,0,0.0,0.0,31,0.00,CLR,,0.00,WeatherDisplay:10.37,2013-07-22 01:25:00,
2013-07-21 21:30:00,68.4,35.7,30.03,North,0,0.0,0.0,30,0.00,CLR,,0.00,WeatherDisplay:10.37,2013-07-22 01:30:00,
2013-07-21 21:35:00,68.0,35.4,30.03,North,0,0.0,0.0,30,0.00,CLR,,0.00,WeatherDisplay:10.37,2013-07-22 01:35:00,
2013-07-21 21:40:00,68.0,35.4,30.03,North,0,0.0,0.0,30,0.00,CLR,,0.00,WeatherDisplay:10.37,2013-07-22 01:40:00,
2013-07-21 21:45:00,67.8,35.2,30.05,North,0,0.0,0.0,30,0.00,CLR,,0.00,WeatherDisplay:10.37,2013-07-22 01:45:00,
2013-07-21 21:50:00,67.8,35.2,30.05,North,0,0.0,0.0,30,0.00,CLR,,0.00,WeatherDisplay:10.37,2013-07-22 01:50:00,
2013-07-21 21:55:00,67.6,35.1,30.05,North,0,0.0,0.0,30,0.00,CLR,,0.00,WeatherDisplay:10.37,2013-07-22 01:55:00,
2013-07-21 22:00:00,67.6,35.1,30.05,North,0,0.0,0.0,30,0.00,CLR,,0.00,WeatherDisplay:10.37,2013-07-22 02:00:00,
2013-07-21 22:05:00,67.3,33.9,30.05,North,0,0.0,0.0,29,0.00,CLR,,0.00,WeatherDisplay:10.37,2013-07-22 02:05:00,
2013-07-21 22:10:00,67.3,33.9,30.05,North,0,0.0,0.0,29,0.00,CLR,,0.00,WeatherDisplay:10.37,2013-07-22 02:10:00,
2013-07-21 22:15:00,67.3,33.9,30.05,North,0,0.0,0.0,29,0.00,CLR,,0.00,WeatherDisplay:10.37,2013-07-22 02:15:00,
2013-07-21 22:20:00,67.1,33.8,30.05,North,0,0.0,0.0,29,0.00,CLR,,0.00,WeatherDisplay:10.37,2013-07-22 02:20:00,
2013-07-21 22:25:00,67.1,33.8,30.05,North,0,0.0,0.0,29,0.00,CLR,,0.00,WeatherDisplay:10.37,2013-07-22 02:25:00,
2013-07-21 22:30:00,67.0,33.6,30.03,North,0,0.0,0.0,29,0.00,CLR,,0.00,WeatherDisplay:10.37,2013-07-22 02:30:00,
2013-07-21 22:35:00,66.9,33.6,30.05,North,0,0.0,0.0,29,0.00,CLR,,0.00,WeatherDisplay:10.37,2013-07-22 02:35:00,
2013-07-21 22:40:00,66.9,33.6,30.03,North,0,0.0,0.0,29,0.00,CLR,,0.00,WeatherDisplay:10.37,2013-07-22 02:40:00,
2013-07-21 22:45:00,66.9,32.7,30.03,North,0,0.0,0.0,28,0.00,CLR,,0.00,WeatherDisplay:10.37,2013-07-22 02:45:00,
2013-07-21 22:50:00,66.9,32.7,30.05,North,0,0.0,0.0,28,0.00,CLR,,0.00,WeatherDisplay:10.37,2013-07-22 02:50:00,
2013-07-21 22:55:00,66.9,32.7,30.05,North,0,0.0,0.0,28,0.00,CLR,,0.00,WeatherDisplay:10.37,2013-07-22 02:55:00,
2013-07-21 23:00:00,66.7,32.6,30.05,North,0,0.0,0.0,28,0.00,CLR,,0.00,WeatherDisplay:10.37,2013-07-22 03:00:00,
2013-07-21 23:05:00,66.7,32.6,30.03,North,0,0.0,0.0,28,0.00,CLR,,0.00,WeatherDisplay:10.37,2013-07-22 03:05:00,
2013-07-21 23:10:00,66.6,32.4,30.04,North,0,0.0,0.0,28,0.00,CLR,,0.00,WeatherDisplay:10.37,2013-07-22 03:10:00,
2013-07-21 23:15:00,66.6,32.4,30.05,North,0,0.0,0.0,28,0.00,CLR,,0.00,WeatherDisplay:10.37,2013-07-22 03:15:00,
2013-07-21 23:20:00,66.6,32.4,30.05,North,0,0.0,0.0,28,0.00,CLR,,0.00,WeatherDisplay:10.37,2013-07-22 03:20:00,
2013-07-21 23:25:00,66.6,31.5,30.05,North,0,0.0,0.0,27,0.00,CLR,,0.00,WeatherDisplay:10.37,2013-07-22 03:25:00,
2013-07-21 23:30:00,66.6,30.6,30.05,North,0,0.0,0.0,26,0.00,CLR,,0.00,WeatherDisplay:10.37,2013-07-22 03:30:00,
2013-07-21 23:35:00,66.6,30.6,30.03,North,0,0.0,0.0,26,0.00,CLR,,0.00,WeatherDisplay:10.37,2013-07-22 03:35:00,
2013-07-21 23:40:00,66.4,30.4,30.03,North,0,0.0,0.0,26,0.00,CLR,,0.00,WeatherDisplay:10.37,2013-07-22 03:40:00,
2013-07-21 23:45:00,66.2,30.3,30.03,North,0,0.0,0.0,26,0.00,CLR,,0.00,WeatherDisplay:10.37,2013-07-22 03:45:00,
2013-07-21 23:50:00,66.2,30.3,30.03,North,0,0.0,0.0,26,0.00,CLR,,0.00,WeatherDisplay:10.37,2013-07-22 03:50:00,
2013-07-21 23:55:00,66.2,30.3,30.03,North,0,0.0,0.0,26,0.00,CLR,,0.00,WeatherDisplay:10.37,2013-07-22 03:55:00,